Location: Munkebjergskolens Observatorium
(55.3864°N, 10.3987°E)
Time: 23:30:58
(UTC+01:00)

DELTA 1 DEB - Pass Details

Date: 12 December 2023
Orbit: 783 x 826 km, 98.9° (Epoch: 04 March)

Event Time Altitude Azimuth Distance (km) Brightness Sun altitude
Rises 07:37:48 0° 15° (NNE) 3,378 ? -7.5°
Reaches altitude 10° 07:40:10 10° 14° (NNE) 2,443 ? -7.2°
Maximum altitude 07:45:34 75° 291° (WNW) 861 ? -6.6°
Drops below altitude 10° 07:50:57 10° 206° (SSW) 2,427 ? -5.9°
Sets 07:53:17 0° 205° (SSW) 3,353 ? -5.7°
